This is the latest recevied weather packets stored in our database for station/object K1PM-WX. If no packets are shown the sender has not sent any weather packets the latest 1 day(s).
| Time | Temp. | Humidity | Pressure | Rain* | Wind** | Luminosity | Snow |
|---|---|---|---|---|---|---|---|
| 1778004838 | 19.44° C | 67% | 1028 hPa | 0 mm | 8.05 m/s, 248° | - | - |
| 1778004536 | 19.44° C | 68% | 1028 hPa | 0 mm | 5.81 m/s, 225° | - | - |
| 1778004237 | 19.44° C | 68% | 1028 hPa | 0 mm | 7.15 m/s, 225° | - | - |
| 1778003937 | 18.89° C | 68% | 1028 hPa | 0 mm | 4.92 m/s, 270° | - | - |
| 1778003638 | 18.89° C | 68% | 1028 hPa | 0 mm | 6.71 m/s, 248° | - | - |
| 1778003337 | 19.44° C | 68% | 1028 hPa | 0 mm | 10.28 m/s, 270° | - | - |
| 1778003036 | 19.44° C | 69% | 1028 hPa | 0 mm | 7.6 m/s, 225° | - | - |
| 1778002736 | 19.44° C | 70% | 1028 hPa | 0 mm | 4.92 m/s, 270° | - | - |
| 1778002436 | 18.89° C | 71% | 1028 hPa | 0 mm | 5.81 m/s, 225° | - | - |
| 1778002136 | 18.33° C | 72% | 1028 hPa | 0 mm | 9.83 m/s, 248° | - | - |
| 1778001836 | 17.78° C | 73% | 1028 hPa | 0 mm | 7.6 m/s, 270° | - | - |
| 1778001536 | 17.22° C | 73% | 1028 hPa | 0 mm | 5.36 m/s, 225° | - | - |
| 1778001236 | 16.67° C | 73% | 1028 hPa | 0 mm | 8.05 m/s, 225° | - | - |
| 1778000937 | 16.67° C | 73% | 1028 hPa | 0 mm | 8.94 m/s, 248° | - | - |
| 1778000637 | 16.67° C | 73% | 1028 hPa | 0 mm | 6.26 m/s, 225° | - | - |
| 1778000338 | 16.67° C | 72% | 1028 hPa | 0 mm | 12.07 m/s, 270° | - | - |
| 1778000037 | 17.22° C | 71% | 1028 hPa | 0 mm | 5.36 m/s, 248° | - | - |
| 1777999737 | 17.22° C | 71% | 1028 hPa | 0 mm | 7.6 m/s, 225° | - | - |
| 1777999436 | 17.78° C | 71% | 1028 hPa | 0 mm | 9.83 m/s, 248° | - | - |
| 1777999136 | 17.22° C | 71% | 1028 hPa | 0 mm | 6.26 m/s, 203° | - | - |
| 1777998836 | 17.22° C | 71% | 1027 hPa | 0 mm | 6.26 m/s, 203° | - | - |
| 1777998537 | 17.22° C | 72% | 1027 hPa | 0 mm | 10.73 m/s, 225° | - | - |
| 1777998236 | 17.22° C | 72% | 1027 hPa | 0 mm | 9.83 m/s, 225° | - | - |
| 1777997937 | 16.67° C | 72% | 1027 hPa | 0 mm | 8.49 m/s, 225° | - | - |
| 1777997638 | 16.67° C | 72% | 1028 hPa | 0 mm | 6.71 m/s, 203° | - | - |
* Rain latest hour (hover to see other rain measurements)
** Current wind speed in m/s (hover to see current wind gust speed)